THORAD AGENA D DEB, 4675

Orbit data source: Space-Track

THORAD AGENA D DEB, 4675 is space debris in SSO originally from a launch on Wed, 08 Apr 1970 UTC launched from the Air Force Western Test Range (AFWTR). Debris objects in space refer to the collection of defunct objects orbiting the Earth. Examples of debris include non-operational satellites, rocket bodies, and fragments generated from explosions, collisions, or faulty payload assembly.

Loading next visibility...
Identifier
4675, 1970-025AY
Orbit
SSO
Country
Flag of USUS
Related business
Manufacturer
Unknown
Mission
Spacecraft
Bus & Motor
Unknown
Mass
Unknown
Launch date (UTC)
1970-04-08 (56 years ago)
Launch vehicle
Unknown
Launch site
Air Force Western Test Range (AFWTR)
Object type
Payload
Rocket body
Debris
Shape & HBR
Unknown shape, 1.8 m
Radar Cross Section
Large (>1 m²)

Expand to show TLE details & history
Last TLE update: 15 hours ago

TLE from 15 hours ago
0 THORAD AGENA D DEB
1 04675U 70025AY  25300.91223497  .00000056  00000-0  15742-3 0  9996
2 04675 100.1474 268.3546 0000293 228.2853 191.5473 13.51519626738387
Epoch: 2025-10-27T21:53Z
TLE epoch observation values (Epoch: 2025-10-27T21:53:37.101Z)
Latitude
58.42016°
Longitude
-113.39505°
Altitude
1,076.647 km
Speed
7.319 km/s
True Right ascension
16h 46m 04s
True Declination
58° 16' 23"
Sunlit
Object was in daylight at epoch
Visualization orbit readout
Latitude
Unknown
Longitude
Unknown
Altitude
Unknown
Speed
Unknown
Apparent Right ascension
Unknown
Apparent Declination
Unknown
Sunlit
N/A
Visualization observer readout
Local Sidereal Time
08:00:21
Azimuth
Unknown
Elevation
Unknown
Doppler factor
Unknown
Orbital elements
Apogee altitude
1,064.214 km
Perigee altitude
1,063.778 km
Semi-major axis
7,442.133 km
Eccentricity
0.00003
Inclination
100.1474°
RAAN
268.3546°
Arg. of periapsis
228.2853°
True anomaly
191.54663°
Mean anomaly
191.5473°
Eccentric anomaly
191.54696°
Mean motion
3.38063 °/min
Orbital period
106.49 mins
BSTAR
0.00015742
Loading maneuver chart data...
Computing Atmospheric mass density...

Documentation

Showing up to 5 results
|